Location: *
(50.3440°N, 18.6237°E)
Time: 13:09:46
(UTC+00:00)

Meteor 1-11 Rocket - Pass Details

Date: 30 November 2020
Orbit: 831 x 915 km, 81.2° (Epoch: 27 January)

Event Time Altitude Azimuth Distance (km) Brightness Sun altitude
Rises 17:37:31 0° 347° (NNW) 3,466 7.0 -26.5°
Reaches altitude 10° 17:39:56 10° 346° (NNW) 2,536 6.3 -26.9°
Maximum altitude 17:45:44 84° 260° (W) 901 3.7 -27.9°
Enters shadow 17:48:48 30° 175° (S) 1,556 5.0 -28.3°
